Vorticity
7 6 6 6 6 5 5 6 7 8 7 5 5 5 5 4 5 8 10 9 11 14 17 19 21 24 30 35 29 21 13 4 4 6 5 6 5 5 5 5 4 4 3 3 3 3 3 3 3 2 1 1 1 1 2 2 3 4 5 6 5 5 5 4 3 3 4 5 5 5 4 4 4 3 4 4 4 5 5 5 5 5 6 6 6 5 4 5
7 6 6 6 6 6 5 5 8 10 9 4 3 6 4 3 6 8 10 12 13 15 17 18 17 21 29 23 13 11 10 6 5 5 5 6 5 4 5 5 4 4 3 3 3 3 3 2 2 2 1 1 1 1 1 2 2 3 4 5 6 5 5 5 5 4 4 5 5 5 5 4 4 3 3 4 3 4 5 5 5 5 6 7 6 5 5 5
8 7 6 7 6 6 6 5 9 11 9 5 3 6 4 3 7 9 11 12 13 16 17 15 12 15 20 13 5 8 8 6 7 6 5 5 5 5 5 4 4 3 3 3 2 2 2 1 2 1 1 1 1 1 1 2 2 3 4 4 6 5 4 4 5 5 4 4 5 5 5 4 4 4 4 4 3 3 4 5 6 6 6 7 7 5 5 6
8 7 6 7 7 6 6 6 9 13 10 6 4 4 4 4 7 10 10 12 13 13 14 11 7 9 11 10 5 6 9 7 7 8 5 4 5 5 5 5 4 3 2 2 2 2 1 1 1 1 1 1 1 1 1 2 2 2 3 4 5 5 4 5 5 6 5 5 5 5 5 4 4 4 4 4 4 4 4 5 6 7 7 7 7 6 6 6
8 6 7 7 8 6 6 6 8 13 12 6 3 4 3 3 9 11 9 11 12 10 12 8 5 5 6 7 4 8 8 4 8 9 5 5 5 4 4 5 4 4 2 1 2 1 1 1 1 1 1 1 1 1 0 1 1 2 3 3 5 5 5 5 5 5 4 4 5 5 5 4 3 4 3 3 4 4 4 6 7 8 8 8 8 7 6 6
9 7 6 7 7 6 5 6 8 13 14 6 1 3 3 5 10 11 9 10 9 7 10 6 4 3 4 5 6 12 6 4 12 6 5 7 5 4 4 4 4 4 3 1 2 1 1 1 1 1 0 1 0 1 0 -0 1 1 2 3 4 5 5 6 5 4 4 4 5 5 5 4 3 3 3 3 3 4 6 8 9 9 9 8 8 7 6 6
9 8 7 7 6 6 5 5 8 13 15 6 1 4 2 7 11 11 9 7 6 6 7 5 4 1 3 6 6 9 4 8 13 2 6 9 5 6 4 4 4 4 3 2 2 1 1 1 0 1 0 1 -0 -0 0 0 1 1 1 3 4 5 5 6 4 4 4 5 6 5 4 4 3 3 2 2 4 7 9 10 9 9 9 8 8 7 7 6
8 9 6 8 6 6 6 5 8 13 17 7 2 4 1 6 11 11 9 4 5 5 5 5 2 1 3 5 4 6 6 10 11 3 7 7 5 7 5 5 4 3 3 1 2 1 0 0 -0 0 -0 0 0 0 1 1 2 1 2 2 3 4 5 6 5 5 5 6 7 5 4 3 3 3 2 2 6 11 11 9 8 9 8 7 7 7 8 7
7 10 7 7 7 6 6 6 8 13 18 9 2 3 1 6 10 11 7 3 5 4 6 5 1 2 1 3 2 4 8 10 11 7 6 7 5 5 4 5 4 3 3 2 1 1 -0 0 -0 0 0 1 1 1 1 0 1 1 2 3 3 3 5 7 6 5 5 5 7 6 5 3 2 3 3 3 9 12 9 8 8 8 7 7 7 7 8 7
5 9 9 7 7 7 6 6 8 13 18 10 3 3 1 5 9 11 7 4 4 3 6 4 2 2 -2 3 -0 -0 10 10 12 11 7 8 6 6 5 4 4 3 2 2 1 1 0 0 1 1 0 1 1 0 0 0 1 1 2 4 4 3 5 7 7 5 5 5 6 7 5 2 2 4 4 5 10 11 8 7 7 7 7 7 7 7 7 7
5 7 8 7 7 7 5 6 8 13 19 11 3 3 1 5 8 10 9 5 4 3 4 4 3 0 -2 3 -5 -2 13 7 9 15 9 7 7 8 8 4 4 3 3 3 2 2 1 1 1 1 1 1 1 0 0 0 1 2 2 3 4 4 4 6 6 5 5 5 6 7 4 3 3 4 4 6 11 11 7 8 6 6 7 6 7 7 6 7
5 6 8 8 8 8 5 6 8 12 20 13 4 3 1 4 7 8 9 5 5 4 3 5 4 1 0 -0 -8 0 12 3 5 14 10 8 7 8 9 7 6 4 3 3 2 2 1 1 1 1 1 1 1 1 1 1 1 2 2 3 4 4 4 6 7 5 6 6 6 6 5 4 2 3 6 8 11 9 7 7 5 6 6 6 6 5 6 6
7 6 7 8 8 8 6 6 6 12 21 16 6 4 1 4 5 6 8 6 6 5 3 5 2 3 2 -2 -3 2 5 2 3 8 10 10 6 7 8 7 7 7 7 4 3 3 1 2 2 2 2 1 1 1 1 1 1 1 2 3 4 4 5 7 8 6 6 5 5 5 5 4 1 6 11 9 9 7 6 7 6 7 6 6 6 5 5 5
9 8 6 8 8 7 7 7 6 9 20 18 9 5 2 3 5 4 6 6 6 5 3 4 2 3 1 -1 4 2 -0 3 3 4 8 8 5 6 8 8 5 5 7 5 4 3 3 3 2 2 1 0 1 1 1 1 1 2 2 3 4 5 6 7 8 7 6 5 5 4 5 3 2 10 12 5 5 5 5 7 7 8 6 6 5 5 5 4
10 9 8 8 8 7 6 7 7 8 17 20 11 8 3 3 5 4 4 5 6 7 6 6 5 4 1 2 7 4 1 3 3 4 6 7 6 4 6 9 8 5 5 5 5 4 4 3 2 2 1 1 0 -0 1 0 1 1 2 3 4 6 7 7 8 6 6 5 5 5 6 3 2 12 11 2 4 5 6 7 6 6 6 5 5 4 4 5
10 10 10 9 8 8 5 6 8 6 14 20 14 9 6 3 5 4 3 3 4 6 6 7 10 9 5 3 6 7 4 1 2 6 6 7 8 7 6 6 7 8 6 5 4 4 4 3 3 2 1 2 1 1 2 1 1 1 2 4 5 6 7 7 8 7 6 5 5 5 5 3 3 11 9 2 5 7 6 6 4 6 6 5 4 4 5 6
6 7 8 9 9 8 6 5 8 7 10 17 17 12 7 5 5 5 3 2 2 4 5 5 10 13 8 5 5 8 7 1 1 5 7 7 6 9 10 6 6 7 7 8 5 3 4 4 4 4 3 2 2 2 1 1 2 3 4 5 6 6 6 8 9 8 7 6 6 5 4 3 4 9 7 2 6 7 6 5 4 5 5 5 4 5 6 5
4 5 5 7 9 8 7 5 6 9 9 13 18 14 8 6 6 5 3 2 2 3 3 2 5 9 10 8 7 7 7 3 -0 1 5 8 8 9 9 9 10 9 7 8 7 4 4 4 4 4 4 3 2 3 2 3 5 7 6 7 8 8 8 10 9 7 7 6 6 5 5 3 4 8 7 5 7 6 5 4 4 4 4 4 4 5 6 6
3 4 5 6 7 7 7 6 6 8 9 11 16 16 10 7 7 5 3 2 3 3 2 1 3 6 10 12 8 7 8 6 2 -0 0 3 7 9 10 8 9 10 10 8 7 6 4 5 5 4 4 4 4 5 5 5 5 5 5 5 5 5 7 7 6 6 6 6 6 5 4 2 3 8 8 6 6 5 5 5 4 4 3 3 5 6 6 6
5 3 3 4 6 7 6 5 6 8 9 9 13 17 13 8 7 5 2 1 1 2 3 5 6 7 9 11 10 8 8 8 6 4 2 2 2 5 9 9 8 9 10 9 8 7 5 5 5 4 6 7 7 6 5 4 4 4 4 5 5 6 7 7 7 8 6 5 6 5 4 2 3 7 7 6 6 6 6 5 5 4 2 3 5 6 6 5
8 8 6 3 2 5 6 5 6 7 9 9 9 16 17 10 8 7 5 3 2 3 3 3 4 6 7 7 8 8 7 9 6 4 5 6 4 2 4 6 7 7 9 10 10 8 7 4 5 8 8 7 6 5 5 4 5 5 5 6 7 8 8 7 8 8 6 5 5 4 4 4 2 4 7 6 6 7 6 5 4 3 3 4 5 5 5 5
10 11 9 8 4 2 4 4 6 7 8 9 8 13 16 12 9 9 8 6 5 7 6 3 3 5 6 5 6 6 6 8 7 3 2 5 8 8 6 6 5 6 7 8 9 10 10 7 6 7 7 6 5 4 5 5 4 5 5 6 7 8 8 8 8 7 6 6 5 4 4 4 2 2 6 7 7 6 4 5 3 2 4 6 6 5 5 5
9 12 11 10 7 5 4 2 4 6 7 10 9 10 14 13 10 9 9 7 3 4 7 7 6 5 4 3 4 4 3 5 7 6 2 1 4 7 9 9 7 7 6 5 5 7 10 10 8 7 5 5 5 4 4 4 5 6 6 7 8 9 9 8 8 7 6 5 5 5 4 4 3 3 6 6 6 6 4 4 4 4 5 6 7 6 5 4
4 9 11 10 8 6 5 5 5 4 5 9 9 8 11 12 11 10 11 10 4 1 4 6 7 6 3 1 0 2 2 3 5 6 6 4 4 6 6 7 9 9 8 7 6 6 5 6 8 8 6 5 4 4 4 5 6 7 8 9 10 9 9 8 7 6 6 5 6 5 4 5 4 4 6 5 5 6 4 5 6 5 5 6 7 7 5 4
7 6 7 6 8 8 7 8 8 3 1 7 10 8 8 10 12 11 10 12 9 4 3 5 7 6 4 0 -3 -0 1 1 3 4 6 6 6 8 6 6 8 7 8 8 8 8 4 2 4 6 5 5 5 5 6 6 6 7 8 9 9 9 8 8 7 6 6 5 6 5 4 6 5 4 6 5 5 5 4 5 5 4 4 4 5 6 5 4
9 10 9 5 5 7 7 8 10 6 -0 4 10 9 7 8 12 12 10 12 11 7 3 3 6 6 6 3 -3 -4 -2 1 3 3 4 6 5 7 8 8 8 6 7 7 7 8 5 4 4 4 4 4 3 4 4 5 5 6 7 7 8 8 7 7 6 6 6 5 5 5 4 5 6 6 5 5 6 5 4 5 4 3 4 4 4 4 5 4
3 7 9 8 8 5 4 5 9 9 2 2 7 8 7 7 10 12 10 14 13 9 6 3 4 4 8 9 0 -5 -2 -0 1 2 4 5 5 6 6 8 9 8 8 8 7 5 5 6 6 5 6 5 4 4 4 5 5 5 7 7 7 6 6 5 5 6 6 5 5 5 4 4 6 9 7 5 7 6 5 5 4 4 5 5 5 4 5 4
4 4 4 6 10 9 7 5 6 5 3 6 6 8 9 6 9 9 8 17 17 10 8 5 2 2 6 12 7 0 0 -2 -2 3 4 4 5 6 6 6 7 8 9 10 11 8 7 9 9 8 7 7 8 8 7 6 5 5 6 6 6 6 6 5 6 6 6 6 5 4 5 4 5 10 8 5 8 9 7 6 4 4 5 5 6 5 5 5
11 7 4 4 5 7 7 9 8 1 2 8 7 8 9 6 7 5 7 20 19 8 8 7 3 2 2 7 10 5 1 -1 -1 2 3 4 5 6 7 7 6 7 7 8 8 8 8 8 9 10 8 7 7 7 7 6 6 6 6 6 6 6 6 5 6 6 6 7 5 3 5 4 4 10 10 5 7 9 9 7 5 5 5 5 6 5 4 5
15 11 7 6 5 4 7 10 8 2 3 6 6 7 8 7 6 3 7 20 17 7 9 9 5 5 1 1 8 6 -0 0 1 -0 1 4 4 4 6 8 7 7 8 8 7 6 6 6 6 7 8 8 7 6 6 5 6 6 6 6 6 6 6 5 6 6 7 7 5 3 5 4 4 9 13 9 7 7 7 7 7 7 7 6 6 4 4 5
14 13 10 10 8 6 10 10 6 5 4 3 5 7 6 6 5 6 13 16 12 9 10 9 6 5 2 1 6 7 -0 -1 1 -0 1 3 3 3 4 6 7 6 6 8 8 7 7 7 7 6 6 7 7 7 7 6 6 6 6 7 7 7 6 6 6 5 6 7 5 4 5 5 3 5 10 10 9 7 6 7 7 7 7 7 7 6 6 6
14 14 12 11 9 8 9 8 6 5 3 3 7 8 7 6 4 7 13 9 11 16 10 8 9 6 4 2 4 8 2 -2 1 1 1 2 3 3 3 4 6 7 7 7 8 9 8 8 9 8 7 6 5 5 4 4 4 5 6 7 7 8 7 7 7 6 7 8 6 5 6 5 2 2 6 7 8 8 6 5 6 6 6 6 7 7 6 6
16 15 12 9 8 9 8 7 6 4 1 3 8 10 10 9 5 8 12 4 9 19 11 7 10 7 7 5 3 6 2 -2 1 2 2 2 2 2 3 3 4 6 7 8 9 10 10 9 8 8 8 7 6 5 5 5 6 7 7 8 9 9 9 9 9 9 10 9 8 6 6 6 2 2 3 4 7 10 8 5 6 7 7 7 7 6 6 5
17 15 13 11 8 7 7 7 7 3 0 3 8 11 9 6 3 6 13 8 7 13 12 10 10 7 8 6 4 6 4 1 0 0 2 3 3 3 3 3 3 4 5 6 7 7 9 9 9 9 9 8 8 8 8 7 7 7 6 6 6 5 7 8 9 10 10 11 10 7 8 8 4 3 3 2 4 6 5 4 5 5 5 7 7 7 7 6
24 17 12 10 8 8 7 7 7 4 2 4 8 10 9 8 4 2 9 13 10 9 10 11 11 8 8 7 5 5 4 3 2 1 0 1 3 4 3 3 3 3 3 4 5 5 5 6 7 9 10 9 10 10 9 7 7 7 6 5 5 5 6 5 5 7 7 9 10 9 9 9 7 6 5 5 6 6 6 6 5 5 4 4 4 5 6 6
28 20 13 9 8 9 9 7 6 4 5 6 4 8 12 12 8 3 6 13 14 9 6 8 12 10 9 8 6 5 5 2 1 3 2 0 1 2 3 4 3 3 4 3 4 5 5 5 4 5 7 7 7 8 8 8 8 8 8 7 7 7 8 8 8 7 6 7 8 9 11 10 10 10 8 8 9 8 10 10 9 9 8 7 7 7 6 6
22 20 14 10 9 10 10 9 6 5 6 5 6 12 13 9 6 5 7 11 15 11 4 7 12 12 10 9 6 5 7 4 0 1 3 2 1 1 2 4 3 2 3 2 3 4 4 6 6 5 6 5 5 6 7 7 7 7 7 6 5 6 6 6 7 7 6 7 7 7 9 9 9 10 9 9 9 8 9 10 11 12 11 10 10 10 9 8
13 14 12 9 8 8 11 11 7 6 5 5 10 13 9 7 7 5 5 8 13 11 6 6 10 11 12 12 8 5 6 7 4 1 1 2 3 2 0 2 4 3 2 1 2 2 1 3 4 4 5 5 5 5 5 5 4 4 5 4 3 4 4 5 6 7 6 7 8 7 7 8 8 8 8 8 7 6 6 7 8 9 10 10 10 11 11 10
12 7 6 8 10 7 7 12 12 9 6 5 9 10 6 6 10 7 6 9 11 11 8 6 8 10 11 12 11 8 6 8 8 4 2 2 2 2 0 1 2 3 2 1 2 2 2 2 2 1 2 4 4 4 4 4 5 5 5 5 4 4 5 4 5 6 6 7 9 9 7 7 7 7 7 6 6 5 5 5 4 5 6 7 7 8 9 9
17 10 3 3 10 10 7 11 13 9 7 6 7 10 6 5 9 7 7 9 10 11 9 6 7 9 10 9 10 10 8 8 9 7 6 6 3 1 1 1 2 3 3 2 2 2 2 2 3 2 2 2 2 3 3 3 5 6 5 6 6 6 7 6 6 7 6 6 8 9 9 6 4 5 4 4 5 5 5 5 3 3 3 3 4 4 4 5
21 20 11 2 4 11 12 12 8 3 7 11 10 10 7 6 10 8 6 8 11 12 9 6 6 9 10 9 8 10 10 9 9 6 6 8 6 4 2 1 2 3 3 4 3 3 2 2 2 2 2 3 3 3 3 3 4 5 5 5 4 4 5 4 4 4 4 4 4 6 10 6 2 5 5 3 4 4 3 4 3 2 2 2 3 3 4 4
11 17 19 15 7 9 13 12 8 8 12 13 9 7 8 8 10 9 8 9 10 12 10 6 5 7 10 9 8 9 9 11 13 11 9 6 4 5 5 3 3 3 4 7 6 5 6 5 5 4 4 3 3 3 2 2 3 3 4 3 2 2 1 -0 2 3 4 6 4 4 11 8 -0 3 5 2 3 3 2 2 2 2 3 3 5 5 5 5
-1 3 13 22 20 16 14 10 7 9 14 16 11 7 7 9 10 10 9 11 12 12 10 7 5 5 8 8 8 8 7 7 11 14 14 9 3 3 6 6 6 5 4 5 5 5 6 6 5 5 5 4 4 4 3 2 2 1 1 1 -0 1 1 1 3 2 1 3 1 2 10 7 -1 2 5 2 3 2 0 -0 -1 0 2 2 3 3 3 4
1 2 8 16 20 19 15 10 10 10 11 17 18 14 11 10 10 10 10 11 13 12 11 9 7 7 8 8 7 9 9 8 9 12 14 13 6 2 4 6 6 7 7 6 6 5 6 9 9 7 7 5 4 3 2 1 0 0 2 3 2 4 4 4 5 5 4 4 3 3 8 6 -0 2 4 1 1 0 -2 -1 -0 0 1 -0 1 3 3 4
3 3 7 12 12 10 9 11 15 14 10 12 17 19 19 16 12 12 13 13 15 13 12 11 9 8 9 10 9 8 8 9 10 10 13 15 11 3 4 6 3 5 8 9 9 8 7 8 8 7 8 6 2 2 2 4 6 6 6 6 6 6 6 6 7 8 5 3 3 2 4 4 1 1 2 0 1 2 1 2 2 0 -0 -0 1 3 2 2
8 0 1 10 12 8 7 11 15 13 9 10 11 12 15 15 14 13 12 12 14 14 13 14 13 10 8 8 9 8 7 8 9 8 10 15 14 8 7 9 7 6 7 7 9 9 8 7 4 3 5 5 4 4 4 6 10 11 11 10 10 10 9 9 8 6 3 6 7 5 5 6 3 2 3 2 1 2 2 2 1 1 1 1 2 3 3 4
17 9 2 8 14 10 6 8 13 13 11 9 7 5 6 7 9 12 12 12 12 11 11 12 13 13 11 10 9 9 8 7 8 9 8 10 13 11 8 9 9 9 8 8 7 6 7 9 7 5 5 5 4 4 4 2 2 3 4 4 5 6 7 8 6 5 5 4 3 4 6 5 4 3 4 3 2 2 2 2 1 2 2 2 3 3 4 4
15 19 14 12 12 8 4 5 8 11 12 9 5 4 3 2 2 4 7 10 12 12 12 13 13 14 13 11 11 11 10 8 8 7 7 8 10 10 9 9 9 8 9 10 9 6 4 4 6 7 8 8 7 7 7 5 3 3 4 3 2 1 -0 -2 -2 0 1 -3 -3 4 7 2 2 5 4 4 5 3 3 4 3 4 5 6 7 7 6 7
7 15 19 19 16 9 4 3 3 6 10 9 6 7 7 6 4 3 2 2 4 6 8 11 14 16 16 15 14 12 10 10 9 8 7 9 10 10 9 9 9 8 8 9 11 12 11 9 8 7 7 6 6 6 6 7 7 7 6 8 8 6 3 -0 -2 -0 2 -1 -1 4 3 -2 1 5 3 4 6 4 5 6 6 8 9 8 7 6 6 8
7 9 12 17 21 20 14 6 1 2 6 7 6 8 11 10 9 8 7 4 1 -1 0 3 6 8 11 14 16 16 15 14 12 9 8 9 12 13 13 11 11 11 10 9 9 10 11 12 12 13 14 12 7 6 8 7 8 9 8 8 7 3 1 -1 -1 3 6 6 5 6 3 -1 2 7 6 5 6 5 6 6 6 8 9 9 8 6 6 7
11 11 10 9 14 21 23 19 12 8 6 6 6 6 6 8 11 13 12 11 10 7 3 4 4 3 3 5 9 13 15 16 15 12 9 8 7 8 9 10 10 9 9 8 7 7 8 10 9 10 13 12 7 9 11 10 11 12 7 2 -1 -1 -0 2 6 9 9 7 8 6 2 0 4 9 10 8 7 7 7 7 7 8 9 9 8 6 4 2
10 11 12 11 10 13 17 20 20 15 8 5 8 9 6 4 5 10 11 10 12 13 10 9 9 6 4 6 7 7 8 11 13 13 12 11 9 7 6 7 8 7 8 9 8 8 8 9 8 7 9 12 10 8 11 16 16 9 1 -0 4 5 7 11 11 9 7 7 8 7 5 6 7 4 2 3 5 6 8 8 7 6 6 6 7 7 7 4
Height
5703 5707 5711 5714 5717 5720 5723 5726 5728 5731 5734 5737 5740 5743 5746 5747 5749 5751 5753 5754 5756 5758 5760 5763 5765 5767 5769 5771 5774 5777 5781 5786 5790 5793 5797 5800 5804 5810 5814 5817 5820 5823 5826 5829 5832 5835 5837 5839 5841 5843 5845 5847 5849 5851 5853 5854 5856 5857 5858 5859 5860 5862 5863 5863 5864 5865 5866 5868 5869 5870 5871 5872 5872 5873 5873 5874 5875 5876 5876 5876 5876 5877 5877 5877 5877 5877 5877 5877
5700 5704 5708 5711 5714 5717 5720 5723 5726 5729 5732 5735 5738 5741 5744 5746 5747 5749 5751 5753 5755 5757 5760 5762 5764 5767 5769 5772 5775 5778 5781 5785 5789 5793 5796 5799 5804 5809 5812 5816 5820 5822 5825 5828 5831 5833 5836 5838 5840 5842 5844 5846 5848 5850 5852 5854 5855 5857 5858 5859 5860 5861 5862 5863 5863 5864 5866 5867 5868 5869 5871 5871 5872 5872 5873 5874 5874 5875 5876 5876 5876 5876 5876 5877 5876 5876 5876 5877
5698 5701 5705 5708 5711 5714 5717 5720 5723 5726 5729 5733 5736 5739 5742 5744 5746 5747 5749 5751 5754 5756 5759 5762 5764 5767 5770 5773 5776 5779 5782 5785 5789 5792 5795 5799 5804 5807 5811 5815 5819 5822 5824 5827 5830 5832 5834 5836 5838 5841 5843 5845 5847 5849 5852 5853 5855 5856 5857 5858 5859 5860 5861 5862 5863 5864 5865 5866 5868 5869 5870 5871 5871 5872 5872 5873 5873 5874 5875 5875 5875 5876 5876 5876 5876 5876 5876 5876
5695 5698 5702 5706 5709 5712 5715 5718 5721 5723 5726 5730 5734 5737 5740 5742 5744 5746 5748 5750 5752 5755 5759 5761 5764 5767 5770 5774 5777 5779 5782 5785 5788 5791 5794 5799 5803 5807 5810 5814 5817 5821 5823 5826 5828 5831 5833 5835 5837 5840 5842 5844 5846 5848 5851 5852 5854 5855 5857 5858 5859 5860 5860 5861 5862 5863 5864 5866 5867 5868 5869 5870 5870 5871 5871 5872 5873 5873 5874 5874 5875 5875 5875 5875 5875 5875 5876 5876
5692 5695 5699 5703 5706 5709 5712 5715 5718 5721 5724 5727 5731 5735 5738 5740 5743 5745 5747 5749 5751 5754 5758 5761 5763 5766 5769 5773 5777 5779 5782 5786 5787 5790 5794 5798 5802 5806 5809 5813 5816 5819 5822 5825 5827 5829 5832 5834 5836 5839 5841 5843 5845 5847 5849 5852 5853 5855 5856 5857 5858 5859 5860 5861 5862 5863 5864 5865 5866 5867 5868 5869 5870 5870 5870 5871 5872 5872 5873 5873 5874 5874 5874 5874 5875 5875 5875 5876
5688 5692 5696 5700 5703 5706 5709 5712 5715 5718 5721 5725 5728 5732 5736 5739 5741 5744 5746 5748 5750 5753 5757 5760 5762 5765 5769 5772 5776 5780 5783 5785 5786 5790 5794 5797 5801 5805 5808 5811 5815 5818 5821 5824 5827 5829 5831 5833 5836 5838 5840 5842 5844 5846 5848 5850 5852 5854 5855 5856 5857 5858 5859 5860 5861 5862 5863 5864 5865 5867 5868 5868 5869 5869 5870 5870 5871 5872 5872 5872 5873 5873 5873 5874 5874 5874 5875 5875
5686 5690 5693 5697 5700 5704 5707 5709 5712 5716 5719 5722 5726 5730 5733 5737 5740 5743 5745 5747 5749 5752 5755 5758 5761 5764 5768 5771 5775 5779 5783 5784 5786 5790 5793 5796 5800 5803 5807 5810 5813 5817 5820 5823 5826 5828 5830 5833 5835 5837 5839 5841 5843 5845 5847 5849 5851 5852 5854 5855 5856 5857 5858 5859 5860 5861 5862 5863 5865 5866 5867 5867 5868 5868 5868 5869 5871 5871 5871 5871 5872 5872 5872 5873 5873 5874 5874 5875
5683 5687 5691 5694 5698 5701 5704 5707 5710 5713 5716 5720 5723 5727 5731 5734 5738 5741 5744 5746 5748 5751 5754 5757 5760 5763 5767 5770 5774 5778 5782 5784 5786 5789 5792 5796 5799 5802 5805 5808 5812 5815 5818 5821 5824 5826 5829 5831 5833 5835 5837 5839 5842 5844 5846 5848 5849 5851 5852 5854 5855 5856 5857 5858 5859 5860 5861 5863 5864 5865 5866 5867 5867 5867 5867 5869 5870 5870 5870 5870 5871 5871 5872 5872 5872 5873 5874 5874
5681 5685 5689 5692 5695 5699 5702 5705 5707 5710 5714 5718 5721 5725 5729 5732 5736 5740 5743 5745 5746 5749 5753 5755 5759 5762 5765 5769 5773 5777 5780 5783 5786 5788 5791 5795 5798 5801 5804 5807 5810 5813 5817 5820 5823 5825 5827 5830 5832 5834 5836 5838 5840 5842 5845 5846 5848 5849 5851 5852 5854 5855 5856 5857 5858 5859 5860 5862 5863 5864 5865 5866 5866 5866 5867 5868 5869 5869 5869 5869 5870 5870 5871 5871 5872 5873 5873 5874
5679 5683 5687 5690 5693 5696 5699 5702 5705 5708 5711 5715 5719 5723 5726 5730 5734 5737 5741 5743 5745 5748 5751 5754 5757 5760 5764 5767 5771 5775 5778 5781 5785 5787 5790 5793 5796 5800 5803 5806 5809 5812 5815 5818 5821 5823 5825 5828 5829 5831 5833 5836 5838 5840 5843 5845 5846 5848 5849 5851 5852 5854 5855 5856 5857 5858 5859 5860 5862 5863 5864 5865 5865 5865 5866 5866 5868 5868 5868 5869 5869 5870 5870 5871 5871 5872 5873 5873
5677 5681 5685 5688 5691 5694 5697 5700 5703 5706 5709 5713 5717 5721 5724 5728 5731 5735 5738 5742 5744 5747 5750 5753 5756 5759 5762 5766 5770 5773 5776 5780 5783 5786 5788 5792 5795 5798 5801 5804 5807 5810 5813 5816 5818 5820 5823 5825 5827 5829 5832 5834 5836 5838 5840 5842 5844 5846 5848 5850 5851 5852 5853 5854 5855 5857 5858 5859 5861 5862 5863 5864 5864 5864 5864 5865 5866 5867 5868 5868 5868 5869 5869 5870 5871 5871 5872 5873
5675 5679 5683 5686 5689 5692 5695 5698 5701 5704 5707 5710 5714 5718 5722 5725 5729 5732 5736 5740 5743 5745 5748 5751 5754 5757 5761 5765 5769 5771 5774 5778 5781 5784 5787 5789 5793 5796 5799 5802 5805 5808 5811 5813 5816 5818 5820 5822 5825 5828 5830 5832 5834 5836 5838 5840 5842 5844 5846 5848 5849 5850 5851 5852 5854 5855 5857 5858 5859 5860 5861 5863 5863 5863 5863 5864 5865 5866 5867 5867 5867 5868 5868 5869 5870 5871 5871 5872
5672 5677 5681 5684 5687 5690 5693 5696 5699 5702 5705 5708 5712 5716 5719 5723 5726 5730 5734 5738 5741 5744 5747 5750 5753 5756 5760 5764 5766 5769 5772 5776 5779 5782 5785 5787 5791 5794 5797 5800 5803 5806 5809 5812 5814 5816 5818 5820 5823 5825 5828 5830 5832 5834 5836 5838 5841 5842 5844 5846 5847 5849 5850 5851 5852 5854 5855 5856 5857 5858 5860 5861 5861 5862 5863 5863 5864 5864 5865 5866 5867 5867 5868 5868 5869 5870 5871 5871
5670 5674 5678 5682 5685 5688 5691 5694 5696 5700 5703 5706 5710 5714 5717 5720 5724 5728 5732 5735 5739 5742 5745 5748 5752 5755 5758 5762 5764 5767 5771 5774 5777 5781 5783 5786 5789 5792 5795 5798 5801 5804 5807 5809 5812 5814 5816 5819 5821 5823 5826 5828 5830 5832 5835 5836 5839 5840 5842 5843 5845 5847 5849 5850 5851 5852 5853 5855 5856 5857 5859 5860 5860 5861 5861 5861 5862 5863 5864 5865 5866 5867 5867 5868 5868 5869 5870 5870
5667 5671 5675 5679 5683 5686 5689 5691 5694 5698 5701 5704 5708 5711 5715 5718 5722 5725 5729 5733 5736 5740 5743 5746 5750 5753 5757 5760 5762 5765 5769 5772 5776 5779 5782 5784 5787 5790 5793 5796 5799 5802 5805 5807 5809 5812 5814 5816 5819 5821 5824 5826 5828 5831 5833 5835 5837 5838 5840 5842 5844 5846 5847 5848 5849 5850 5851 5853 5854 5855 5857 5858 5859 5860 5860 5859 5861 5862 5863 5864 5865 5866 5866 5867 5868 5868 5869 5869
5664 5668 5672 5676 5680 5683 5686 5689 5692 5695 5698 5702 5705 5708 5712 5716 5720 5723 5726 5730 5734 5737 5741 5744 5748 5751 5755 5757 5760 5764 5767 5770 5773 5777 5780 5782 5785 5787 5790 5793 5796 5799 5802 5805 5807 5809 5812 5814 5816 5819 5822 5824 5826 5829 5831 5832 5834 5836 5838 5840 5842 5844 5846 5846 5847 5848 5849 5851 5852 5854 5856 5856 5857 5859 5859 5859 5860 5861 5862 5862 5864 5865 5866 5866 5867 5868 5868 5869
5660 5665 5669 5673 5677 5681 5684 5687 5690 5693 5696 5699 5702 5706 5709 5713 5717 5720 5724 5728 5732 5735 5738 5742 5745 5749 5752 5755 5758 5762 5765 5768 5771 5774 5778 5780 5783 5785 5788 5791 5794 5797 5800 5802 5804 5807 5809 5812 5814 5817 5820 5822 5824 5826 5828 5830 5833 5835 5837 5839 5841 5842 5843 5844 5845 5846 5847 5849 5850 5851 5854 5855 5856 5857 5857 5858 5859 5860 5860 5861 5862 5863 5865 5865 5866 5867 5867 5868
5657 5661 5666 5670 5674 5678 5681 5684 5688 5691 5693 5696 5700 5703 5707 5710 5714 5718 5721 5725 5729 5733 5736 5739 5743 5746 5750 5753 5756 5759 5762 5764 5768 5771 5775 5778 5781 5784 5786 5789 5792 5795 5797 5799 5802 5804 5807 5810 5812 5814 5817 5819 5822 5824 5827 5830 5833 5834 5836 5837 5838 5839 5841 5842 5843 5844 5846 5847 5848 5849 5852 5853 5853 5855 5855 5856 5857 5858 5859 5860 5861 5862 5863 5864 5865 5866 5866 5867
5653 5658 5662 5666 5670 5674 5678 5682 5685 5688 5691 5694 5697 5701 5704 5707 5711 5715 5719 5723 5727 5730 5733 5737 5741 5744 5748 5750 5752 5755 5758 5761 5765 5769 5772 5776 5779 5782 5784 5787 5790 5792 5795 5797 5800 5802 5805 5808 5810 5813 5816 5819 5821 5824 5826 5828 5830 5831 5832 5833 5835 5836 5838 5839 5840 5842 5843 5844 5845 5847 5849 5850 5851 5853 5853 5854 5856 5857 5858 5859 5860 5860 5861 5862 5863 5864 5865 5865
5649 5654 5658 5663 5667 5671 5675 5678 5681 5685 5688 5692 5695 5698 5702 5705 5709 5713 5717 5721 5724 5728 5732 5736 5739 5742 5745 5747 5749 5752 5755 5758 5762 5766 5769 5773 5776 5779 5781 5784 5787 5790 5793 5795 5797 5800 5803 5805 5809 5813 5816 5818 5819 5821 5822 5824 5826 5827 5828 5830 5831 5833 5834 5836 5837 5839 5840 5841 5843 5845 5846 5848 5849 5850 5851 5852 5854 5856 5856 5857 5858 5858 5859 5861 5862 5862 5863 5863
5646 5650 5655 5659 5663 5668 5671 5675 5678 5681 5686 5689 5693 5697 5701 5705 5709 5713 5717 5719 5721 5725 5728 5732 5735 5738 5741 5744 5747 5750 5753 5756 5759 5762 5766 5770 5773 5776 5779 5782 5785 5788 5790 5793 5795 5798 5800 5804 5808 5810 5811 5813 5814 5816 5818 5820 5822 5824 5825 5827 5829 5830 5832 5833 5835 5837 5838 5839 5841 5842 5843 5845 5847 5848 5849 5850 5853 5854 5855 5855 5856 5857 5858 5859 5860 5861 5861 5861
5642 5647 5652 5656 5660 5664 5668 5671 5674 5678 5683 5687 5691 5695 5699 5703 5707 5711 5714 5716 5718 5721 5724 5727 5731 5734 5737 5741 5744 5747 5751 5754 5757 5760 5764 5767 5770 5773 5776 5779 5782 5785 5787 5790 5793 5796 5798 5803 5805 5805 5807 5809 5811 5813 5815 5817 5819 5821 5823 5824 5826 5828 5829 5831 5832 5834 5835 5836 5838 5839 5841 5843 5845 5845 5847 5849 5851 5852 5853 5853 5855 5855 5856 5858 5858 5858 5859 5860
5639 5644 5648 5652 5656 5660 5664 5667 5671 5676 5681 5685 5690 5693 5696 5699 5702 5705 5708 5711 5714 5717 5721 5724 5727 5730 5734 5737 5741 5745 5748 5751 5755 5758 5761 5765 5768 5771 5774 5777 5779 5782 5784 5788 5791 5794 5798 5801 5801 5802 5805 5807 5808 5811 5813 5815 5817 5819 5820 5822 5824 5825 5827 5828 5829 5831 5832 5834 5835 5837 5838 5841 5843 5843 5845 5846 5848 5850 5850 5852 5853 5853 5855 5855 5856 5856 5857 5858
5636 5640 5644 5649 5653 5656 5661 5664 5668 5673 5678 5683 5685 5688 5692 5695 5697 5700 5703 5706 5709 5713 5717 5721 5724 5728 5730 5733 5737 5741 5745 5749 5752 5755 5759 5762 5765 5768 5771 5774 5776 5779 5782 5785 5788 5791 5794 5796 5797 5800 5802 5804 5806 5809 5811 5813 5814 5816 5818 5819 5821 5822 5824 5825 5826 5828 5830 5831 5833 5834 5835 5838 5840 5841 5843 5844 5845 5848 5848 5849 5851 5852 5852 5853 5853 5854 5855 5855
5632 5636 5641 5645 5649 5653 5657 5660 5666 5671 5675 5679 5681 5684 5688 5691 5693 5696 5699 5701 5704 5708 5712 5716 5721 5724 5727 5730 5734 5738 5742 5745 5748 5751 5755 5758 5761 5765 5768 5771 5774 5777 5779 5782 5784 5787 5789 5791 5794 5797 5799 5801 5803 5806 5808 5810 5811 5813 5815 5816 5818 5819 5821 5822 5824 5825 5827 5828 5830 5831 5831 5834 5838 5839 5840 5841 5842 5844 5845 5847 5849 5849 5850 5850 5851 5851 5852 5853
5627 5632 5637 5641 5645 5649 5652 5658 5663 5667 5672 5675 5677 5681 5684 5687 5689 5691 5694 5696 5698 5702 5707 5712 5716 5719 5723 5727 5730 5734 5738 5741 5745 5748 5752 5754 5758 5761 5764 5767 5771 5773 5776 5778 5779 5782 5785 5788 5791 5794 5796 5798 5800 5803 5805 5806 5808 5810 5812 5813 5815 5816 5818 5819 5821 5822 5823 5825 5827 5828 5828 5830 5835 5837 5838 5839 5840 5841 5843 5845 5847 5847 5847 5847 5848 5848 5849 5850
5623 5628 5633 5637 5642 5645 5650 5656 5660 5664 5669 5670 5672 5677 5680 5682 5684 5687 5690 5690 5692 5698 5704 5708 5712 5717 5721 5724 5728 5731 5734 5738 5743 5746 5749 5752 5755 5758 5761 5764 5767 5769 5771 5773 5776 5780 5784 5786 5788 5791 5793 5795 5798 5800 5802 5803 5805 5807 5809 5810 5811 5813 5815 5816 5817 5819 5820 5822 5823 5825 5825 5826 5831 5835 5836 5837 5838 5838 5840 5842 5844 5844 5843 5844 5846 5847 5847 5847
5620 5624 5628 5633 5637 5641 5646 5651 5656 5661 5664 5664 5668 5673 5674 5676 5679 5682 5684 5682 5686 5694 5699 5703 5709 5714 5718 5720 5724 5727 5731 5737 5740 5742 5746 5749 5752 5755 5758 5761 5764 5765 5767 5770 5774 5778 5781 5782 5785 5787 5790 5793 5795 5797 5798 5800 5801 5804 5806 5807 5808 5810 5811 5812 5814 5815 5816 5818 5820 5822 5824 5823 5826 5833 5834 5834 5835 5836 5838 5840 5840 5840 5841 5842 5843 5844 5844 5845
5615 5619 5624 5628 5632 5637 5642 5647 5652 5655 5656 5658 5663 5666 5668 5671 5673 5675 5674 5675 5683 5691 5695 5700 5705 5709 5713 5717 5721 5724 5729 5733 5736 5740 5744 5746 5748 5752 5755 5758 5760 5761 5764 5767 5771 5773 5775 5778 5781 5783 5786 5789 5792 5793 5794 5796 5798 5800 5802 5803 5805 5806 5807 5809 5810 5812 5813 5815 5817 5820 5821 5820 5822 5829 5833 5832 5832 5834 5835 5836 5836 5837 5839 5840 5840 5841 5841 5841
5610 5614 5619 5623 5628 5633 5639 5644 5647 5647 5649 5654 5658 5659 5661 5664 5666 5666 5665 5672 5682 5688 5692 5697 5702 5705 5710 5714 5718 5722 5726 5729 5733 5737 5739 5741 5745 5749 5751 5754 5755 5757 5761 5764 5766 5769 5771 5774 5776 5779 5782 5785 5787 5788 5790 5792 5794 5796 5798 5800 5801 5802 5804 5805 5807 5809 5810 5811 5814 5816 5819 5819 5818 5825 5830 5830 5830 5832 5832 5832 5833 5835 5836 5837 5837 5838 5838 5838
5605 5609 5613 5619 5624 5629 5635 5638 5639 5642 5646 5649 5651 5652 5654 5657 5659 5658 5662 5675 5682 5683 5689 5694 5698 5703 5708 5712 5716 5720 5723 5726 5730 5733 5735 5739 5742 5744 5747 5749 5752 5754 5757 5760 5763 5765 5768 5770 5773 5776 5778 5781 5783 5784 5786 5788 5790 5793 5794 5796 5798 5799 5800 5802 5803 5805 5806 5808 5811 5812 5815 5816 5815 5821 5828 5827 5828 5829 5829 5830 5831 5832 5833 5834 5834 5834 5834 5835
5601 5605 5609 5614 5618 5623 5629 5631 5633 5637 5641 5643 5645 5646 5648 5649 5649 5652 5665 5677 5676 5677 5686 5692 5696 5702 5706 5710 5714 5717 5720 5723 5727 5729 5732 5736 5738 5741 5744 5746 5749 5751 5754 5757 5760 5762 5764 5767 5769 5772 5774 5777 5779 5781 5783 5785 5788 5789 5791 5793 5794 5795 5797 5798 5800 5801 5803 5806 5808 5809 5812 5813 5813 5818 5823 5823 5825 5826 5826 5827 5829 5829 5830 5830 5830 5831 5831 5831
5596 5600 5605 5609 5613 5618 5622 5624 5628 5631 5634 5637 5638 5640 5641 5640 5643 5655 5668 5672 5670 5676 5686 5690 5694 5700 5702 5705 5708 5712 5716 5719 5723 5726 5729 5732 5734 5737 5740 5743 5746 5749 5752 5756 5757 5759 5762 5764 5766 5769 5771 5774 5775 5778 5780 5782 5784 5786 5788 5789 5791 5792 5793 5795 5797 5798 5800 5802 5803 5805 5807 5809 5811 5815 5817 5819 5822 5823 5824 5824 5825 5826 5826 5826 5827 5828 5828 5828
5591 5595 5600 5604 5609 5613 5617 5619 5622 5626 5629 5631 5632 5634 5634 5634 5645 5659 5665 5665 5668 5677 5683 5685 5690 5694 5696 5700 5704 5708 5711 5714 5718 5722 5724 5727 5729 5732 5736 5739 5743 5746 5749 5751 5753 5756 5759 5761 5765 5767 5769 5771 5773 5775 5777 5779 5780 5781 5784 5785 5787 5789 5790 5792 5793 5794 5797 5798 5799 5800 5802 5805 5809 5812 5813 5816 5819 5821 5821 5821 5821 5821 5822 5823 5823 5824 5824 5824
5586 5590 5595 5600 5604 5608 5612 5614 5618 5621 5622 5624 5626 5627 5627 5634 5649 5658 5659 5662 5668 5673 5677 5680 5685 5687 5690 5694 5698 5702 5705 5709 5714 5717 5719 5722 5726 5730 5734 5737 5740 5743 5745 5747 5750 5752 5754 5757 5761 5763 5765 5768 5769 5771 5772 5773 5775 5776 5779 5781 5783 5785 5786 5787 5789 5790 5792 5793 5794 5796 5798 5803 5807 5808 5810 5812 5814 5816 5817 5817 5817 5817 5817 5817 5818 5819 5820 5820
5581 5586 5590 5595 5600 5604 5607 5609 5612 5615 5616 5619 5619 5619 5626 5640 5651 5653 5655 5659 5666 5670 5672 5674 5678 5680 5684 5688 5692 5696 5700 5704 5709 5712 5715 5719 5722 5726 5730 5734 5738 5740 5743 5746 5747 5749 5751 5754 5757 5758 5760 5762 5764 5766 5767 5769 5771 5773 5775 5777 5780 5781 5782 5783 5785 5787 5788 5788 5790 5793 5796 5801 5804 5804 5806 5808 5809 5811 5812 5813 5813 5813 5813 5813 5813 5814 5814 5815
5578 5582 5586 5590 5595 5598 5601 5604 5607 5609 5612 5613 5614 5619 5631 5642 5645 5645 5649 5655 5661 5664 5664 5667 5672 5675 5679 5684 5688 5692 5696 5700 5703 5706 5711 5715 5717 5722 5727 5731 5734 5737 5740 5742 5744 5746 5749 5751 5753 5755 5756 5757 5759 5761 5762 5765 5767 5769 5771 5774 5776 5776 5777 5779 5780 5782 5783 5784 5787 5790 5793 5797 5799 5801 5803 5804 5804 5805 5806 5808 5809 5809 5809 5809 5808 5809 5809 5810
5575 5579 5582 5586 5590 5593 5596 5599 5601 5604 5607 5608 5612 5622 5631 5635 5635 5638 5645 5651 5655 5657 5658 5662 5668 5672 5676 5681 5685 5689 5692 5694 5697 5702 5707 5710 5713 5719 5724 5727 5731 5733 5735 5737 5739 5741 5743 5745 5747 5749 5751 5753 5755 5755 5757 5760 5763 5765 5767 5769 5770 5770 5773 5775 5776 5778 5780 5781 5783 5787 5789 5792 5795 5797 5800 5800 5800 5800 5801 5802 5804 5805 5805 5804 5804 5805 5806 5807
5571 5574 5578 5582 5585 5588 5591 5594 5596 5599 5600 5603 5611 5620 5625 5627 5630 5635 5641 5645 5648 5650 5653 5657 5663 5667 5672 5677 5681 5685 5687 5690 5694 5699 5702 5706 5710 5715 5720 5723 5726 5729 5730 5732 5734 5735 5738 5739 5741 5743 5746 5747 5748 5750 5753 5757 5759 5761 5762 5763 5765 5766 5769 5771 5773 5774 5776 5778 5780 5782 5784 5788 5792 5794 5795 5795 5796 5796 5796 5797 5798 5799 5799 5799 5800 5801 5802 5803
5567 5570 5573 5577 5580 5582 5586 5588 5590 5592 5595 5602 5611 5616 5619 5623 5626 5630 5634 5638 5641 5645 5648 5653 5658 5662 5667 5671 5675 5679 5683 5686 5690 5694 5698 5702 5707 5711 5715 5719 5721 5724 5725 5726 5727 5730 5732 5733 5735 5737 5740 5741 5744 5747 5751 5753 5754 5756 5757 5759 5762 5764 5765 5767 5769 5771 5773 5774 5776 5777 5778 5783 5788 5789 5789 5791 5792 5792 5792 5792 5792 5793 5793 5793 5794 5796 5797 5797
5563 5566 5569 5573 5575 5578 5580 5582 5585 5588 5594 5601 5606 5610 5614 5618 5621 5624 5628 5632 5636 5640 5644 5648 5652 5657 5662 5666 5669 5674 5677 5681 5685 5689 5692 5698 5703 5707 5711 5715 5717 5719 5719 5719 5722 5725 5726 5728 5730 5731 5734 5738 5741 5744 5746 5747 5748 5750 5752 5755 5757 5759 5761 5762 5763 5766 5769 5769 5770 5771 5772 5778 5784 5785 5785 5786 5787 5788 5788 5788 5788 5788 5788 5788 5788 5789 5790 5791
5559 5562 5566 5569 5571 5573 5575 5578 5581 5586 5591 5596 5600 5604 5609 5612 5615 5619 5622 5626 5631 5635 5639 5643 5646 5651 5656 5660 5664 5668 5671 5675 5679 5683 5687 5694 5700 5703 5706 5709 5711 5712 5713 5714 5718 5721 5721 5722 5724 5726 5729 5733 5735 5737 5739 5740 5742 5744 5746 5750 5752 5753 5755 5756 5757 5761 5763 5762 5765 5766 5766 5773 5781 5782 5781 5782 5782 5783 5784 5784 5784 5783 5783 5783 5784 5784 5784 5785
5555 5558 5561 5564 5566 5568 5570 5573 5577 5582 5587 5592 5596 5600 5603 5607 5611 5614 5617 5622 5626 5630 5633 5637 5641 5645 5650 5654 5658 5662 5666 5670 5673 5678 5684 5690 5694 5696 5697 5700 5703 5704 5706 5708 5711 5713 5715 5715 5717 5720 5723 5725 5727 5730 5733 5734 5736 5739 5743 5747 5748 5749 5750 5751 5751 5754 5755 5757 5761 5762 5761 5769 5777 5778 5778 5778 5777 5778 5778 5778 5778 5778 5778 5779 5779 5779 5779 5779
5551 5554 5557 5559 5561 5563 5565 5570 5575 5579 5584 5588 5592 5595 5599 5603 5606 5609 5613 5617 5621 5625 5628 5632 5636 5640 5645 5650 5653 5657 5661 5663 5667 5673 5679 5682 5686 5689 5689 5692 5696 5697 5699 5702 5705 5707 5708 5708 5711 5713 5714 5717 5719 5722 5725 5729 5733 5736 5740 5742 5742 5743 5743 5743 5745 5747 5748 5753 5757 5756 5758 5768 5773 5773 5774 5772 5771 5771 5772 5772 5773 5773 5773 5773 5773 5773 5772 5772
5548 5551 5553 5555 5556 5558 5561 5567 5572 5576 5580 5584 5588 5592 5595 5598 5601 5605 5609 5612 5617 5621 5624 5628 5631 5635 5641 5645 5648 5652 5654 5658 5662 5667 5672 5676 5680 5683 5683 5685 5689 5692 5694 5696 5698 5700 5699 5700 5703 5705 5706 5709 5714 5718 5724 5729 5731 5732 5734 5736 5736 5737 5737 5739 5741 5740 5742 5750 5752 5750 5756 5766 5768 5767 5767 5766 5765 5765 5766 5768 5768 5768 5767 5767 5766 5766 5765 5765
5542 5546 5548 5551 5553 5554 5558 5564 5568 5571 5576 5580 5584 5587 5590 5594 5598 5602 5604 5607 5611 5615 5619 5623 5627 5631 5635 5639 5643 5646 5649 5653 5657 5661 5666 5670 5673 5676 5678 5680 5682 5685 5687 5688 5690 5691 5690 5692 5696 5699 5701 5706 5713 5718 5722 5724 5724 5725 5728 5730 5731 5731 5733 5734 5732 5732 5740 5746 5742 5744 5753 5759 5762 5761 5759 5760 5760 5760 5761 5761 5761 5760 5760 5760 5760 5759 5759 5759
5537 5540 5544 5547 5549 5551 5554 5559 5563 5568 5573 5576 5579 5583 5586 5590 5593 5595 5598 5602 5605 5610 5613 5617 5621 5625 5629 5634 5638 5642 5645 5649 5652 5656 5661 5664 5666 5669 5671 5673 5675 5677 5680 5681 5682 5683 5683 5685 5691 5695 5698 5704 5710 5711 5711 5713 5715 5718 5720 5721 5722 5723 5724 5724 5723 5729 5738 5735 5732 5743 5749 5749 5754 5756 5753 5755 5755 5753 5754 5753 5752 5752 5752 5752 5753 5754 5754 5754
5532 5535 5539 5542 5545 5548 5551 5556 5560 5565 5569 5571 5574 5578 5582 5585 5587 5590 5595 5598 5601 5604 5608 5612 5616 5621 5625 5629 5633 5637 5640 5643 5646 5650 5654 5657 5660 5662 5664 5667 5668 5670 5672 5674 5675 5676 5677 5681 5688 5691 5694 5700 5703 5702 5703 5706 5708 5710 5712 5712 5713 5714 5714 5715 5718 5726 5730 5724 5727 5741 5741 5738 5746 5750 5748 5751 5749 5746 5747 5746 5745 5745 5744 5745 5747 5750 5750 5748
5527 5530 5533 5537 5540 5544 5548 5553 5556 5559 5563 5566 5569 5572 5576 5579 5582 5587 5591 5593 5596 5599 5603 5608 5613 5617 5620 5623 5627 5631 5634 5637 5641 5645 5648 5650 5653 5655 5657 5659 5661 5663 5665 5666 5668 5670 5671 5677 5683 5685 5687 5693 5695 5694 5696 5699 5700 5702 5705 5705 5706 5707 5708 5710 5715 5722 5723 5718 5724 5732 5728 5729 5741 5744 5742 5744 5743 5740 5741 5740 5739 5739 5738 5739 5740 5742 5742 5740
5522 5525 5528 5531 5535 5539 5543 5546 5550 5553 5557 5560 5563 5567 5571 5574 5578 5582 5584 5587 5591 5595 5599 5604 5609 5612 5614 5617 5620 5625 5629 5631 5635 5638 5641 5643 5645 5648 5650 5651 5654 5658 5659 5660 5662 5664 5666 5672 5677 5678 5679 5684 5688 5688 5689 5690 5691 5693 5695 5697 5699 5701 5703 5707 5711 5716 5715 5712 5716 5720 5717 5724 5738 5738 5734 5737 5737 5735 5735 5735 5734 5733 5732 5732 5733 5733 5733 5731
5516 5519 5523 5526 5529 5533 5536 5540 5544 5547 5550 5554 5558 5563 5566 5570 5574 5577 5579 5583 5587 5590 5595 5600 5603 5605 5607 5609 5614 5619 5622 5624 5627 5630 5632 5634 5637 5640 5642 5645 5648 5651 5652 5654 5655 5657 5662 5666 5670 5671 5670 5675 5683 5682 5680 5682 5682 5680 5684 5690 5694 5697 5700 5703 5706 5707 5706 5704 5708 5709 5709 5720 5734 5731 5726 5729 5730 5727 5728 5729 5727 5726 5725 5725 5725 5726 5726 5723
5511 5514 5517 5520 5523 5526 5530 5534 5537 5540 5545 5550 5555 5559 5562 5565 5568 5569 5572 5577 5581 5585 5590 5594 5596 5598 5599 5603 5610 5614 5614 5615 5618 5622 5624 5627 5630 5632 5635 5638 5641 5644 5646 5648 5649 5652 5656 5659 5663 5664 5662 5669 5676 5673 5672 5673 5668 5666 5678 5690 5693 5694 5695 5696 5696 5697 5699 5699 5700 5700 5704 5716 5724 5720 5717 5721 5720 5718 5720 5721 5718 5717 5718 5718 5719 5720 5719 5718